Terug naar catalogus

SL-14 DEB

ActiefPO
NORAD 45347·DEBRIS·🇷🇺 Russia

Gelanceerd Aug 15, 1991 vanaf Plesetsk Cosmodrome

Loading…

Volgende Passages (komende 24 uur)

TLE

VersSource: Space-Track

Epoch: Sep 13, 2026, 10:46 UTC

1 45347U 91056CG  26256.44923086  .00006886  00000-0  42246-2 0  9999
2 45347  82.6336 302.3939 0107620  15.5588 344.8846 14.02751659328404

Volg SL-14 DEB in realtime met AllMySat

Download on the App Store